GW5858 Weather Reports


Display with metric or nautical units.
time (UTC)temp
F
wind
direction
speed
MPH
gust
MPH
rain 1hr
in
rain 24hr
in
rain mn
in
humidity
%
barometer
mb
20260508094508 43 309 0.0 0.0 0.00 0.01 0.00 84 1011.3
20260508093014 44 309 0.0 2.0 0.00 0.01 0.00 82 1011.3
20260508091517 44 309 1.0 2.0 0.00 0.01 0.00 82 1011.6
20260508090013 44 333 0.0 2.0 0.00 0.01 0.00 82 1011.6
20260508084510 43 333 0.0 2.0 0.00 0.01 0.00 82 1011.6
20260508083016 44 344 0.0 2.0 0.00 0.01 0.00 80 1011.9
20260508081510 44 241 1.0 7.0 0.00 0.01 0.00 80 1011.8
20260508080008 44 250 1.0 5.0 0.00 0.01 0.00 84 1011.8
20260508074507 43 294 1.0 4.0 0.00 0.01 0.00 87 1012.0
20260508073009 43 284 0.0 2.0 0.00 0.01 0.00 88 1012.1
20260508071508 42 284 0.0 0.0 0.00 0.01 0.00 89 1012.0
20260508070010 42 284 0.0 0.0 0.00 0.01 0.00 88 1011.9
20260508064515 42 284 0.0 2.0 0.00 0.01 0.00 89 1012.1
20260508063008 42 284 0.0 2.0 0.00 0.01 0.00 89 1012.1
20260508061507 42 284 0.0 2.0 0.00 0.01 0.00 90 1012.2
20260508060008 42 284 0.0 3.0 0.00 0.01 0.00 90 1012.2
20260508054510 42 242 0.0 2.0 0.00 0.01 0.00 90 1012.1
20260508053007 41 238 0.0 2.0 0.00 0.01 0.00 91 1012.3
20260508051505 41 238 0.0 2.0 0.00 0.01 0.00 92 1012.5
20260508050007 40 127 0.0 2.0 0.00 0.01 0.00 92 1012.5
20260508044506 40 127 0.0 2.0 0.00 0.01 0.00 92 1012.4
20260508043010 39 127 0.0 0.0 0.00 0.01 0.00 91 1012.4
20260508041513 40 127 0.0 0.0 0.00 0.01 0.00 91 1012.5
20260508040009 40 127 0.0 0.0 0.00 0.01 0.00 90 1012.5
20260508034512 40 127 0.0 0.0 0.00 0.01 0.01 90 1012.6
20260508033019 41 127 0.0 0.0 0.00 0.01 0.01 90 1012.3
20260508031509 42 127 0.0 0.0 0.00 0.01 0.01 88 1012.4
20260508030015 42 127 0.0 0.0 0.01 0.01 0.01 86 1012.4
20260508024515 44 127 0.0 0.0 0.01 0.01 0.01 86 1012.4
20260508023007 44 127 0.0 2.0 0.01 0.01 0.01 85 1012.3
20260508021510 45 127 0.0 4.0 0.01 0.01 0.01 84 1012.2
20260508020006 45 19 1.0 8.0 0.00 0.00 0.00 82 1012.2
20260508014512 45 333 2.0 8.0 0.00 0.00 0.00 80 1012.0
20260508013008 45 5 4.0 13.0 0.00 0.00 0.00 74 1012.3
20260508011507 47 340 4.0 11.0 0.00 0.00 0.00 72 1012.0
20260508010015 47 345 3.0 6.0 0.00 0.00 0.00 68 1011.6
20260508004508 47 331 0.0 3.0 0.00 0.00 0.00 69 1011.3
20260508003007 47 26 1.0 10.0 0.00 0.00 0.00 69 1011.2
20260508001526 47 29 2.0 12.0 0.00 0.00 0.00 67 1011.1
20260508000026 49 336 4.0 11.0 0.00 0.00 0.00 62 1011.0
20260507234527 49 323 3.0 7.0 0.00 0.00 0.00 53 1010.9
20260507233021 50 296 1.0 10.0 0.00 0.00 0.00 52 1010.8
20260507231519 51 301 4.0 10.0 0.00 0.00 0.00 49 1010.7
20260507230027 51 278 2.0 8.0 0.00 0.00 0.00 52 1010.7
20260507224512 52 264 2.0 7.0 0.00 0.00 0.00 55 1010.6
20260507223054 53 269 2.0 10.0 0.00 0.00 0.00 54 1010.5
20260507221528 52 316 1.0 5.0 0.00 0.00 0.00 57 1010.6
20260507220025 54 40 1.0 6.0 0.00 0.00 0.00 57 1010.5
20260507214523 54 11 3.0 7.0 0.00 0.00 0.00 54 1010.6
20260507213017 54 344 4.0 9.0 0.00 0.00 0.00 55 1010.6
20260507211528 53 283 3.0 6.0 0.00 0.00 0.00 55 1010.6
20260507210014 54 255 4.0 10.0 0.00 0.00 0.00 54 1010.6
20260507204532 54 24 2.0 10.0 0.00 0.00 0.00 51 1010.6
20260507203034 56 38 4.0 11.0 0.00 0.00 0.00 46 1010.6
20260507201525 56 277 3.0 11.0 0.00 0.00 0.00 1010.6
20260507200013 56 341 4.0 11.0 0.00 0.00 0.00 42 1010.7
20260507194516 57 51 4.0 9.0 0.00 0.00 0.00 50 1010.8
20260507193037 57 313 5.0 10.0 0.00 0.00 0.00 51 1011.0
20260507191508 57 291 4.0 10.0 0.00 0.00 0.00 51 1011.0
20260507190011 57 264 4.0 11.0 0.00 0.00 0.00 43 1011.0
20260507184511 57 301 3.0 9.0 0.00 0.00 0.00 42 1011.1
20260507183009 57 258 3.0 9.0 0.00 0.00 0.00 46 1011.1
20260507181512 58 314 4.0 9.0 0.00 0.00 0.00 44 1011.1
20260507180010 58 29 4.0 10.0 0.00 0.00 0.00 46 1011.1
20260507174517 57 274 2.0 10.0 0.00 0.00 0.00 44 1011.1
20260507173017 56 316 2.0 9.0 0.00 0.00 0.00 52 1011.2
20260507171512 57 317 2.0 9.0 0.00 0.00 0.00 54 1011.4
20260507170010 57 352 2.0 7.0 0.00 0.00 0.00 57 1011.5
20260507164511 56 344 4.0 12.0 0.00 0.00 0.00 53 1011.7
20260507163012 55 292 3.0 6.0 0.00 0.00 0.00 54 1011.8
20260507161512 55 330 4.0 8.0 0.00 0.00 0.00 57 1012.0
20260507160013 55 348 2.0 9.0 0.00 0.00 0.00 54 1012.2
20260507154508 55 351 1.0 9.0 0.00 0.00 0.00 52 1012.2
20260507153010 55 346 2.0 8.0 0.00 0.00 0.00 54 1012.4
20260507151528 54 360 1.0 9.0 0.00 0.00 0.00 62 1012.4
20260507150012 55 38 3.0 12.0 0.00 0.00 0.00 59 1012.4
20260507144510 54 273 1.0 9.0 0.00 0.00 0.00 59 1012.3
20260507143027 54 5 2.0 6.0 0.00 0.00 0.00 62 1012.4
20260507141521 52 43 2.0 5.0 0.00 0.01 0.00 66 1012.6
20260507140016 50 215 0.0 3.0 0.00 0.01 0.00 62 1012.7
20260507134514 49 229 1.0 3.0 0.00 0.01 0.00 64 1012.8
20260507133028 48 153 2.0 4.0 0.00 0.01 0.00 67 1012.9
20260507131528 47 169 2.0 4.0 0.00 0.01 0.00 70 1013.0
20260507130040 46 150 2.0 6.0 0.00 0.01 0.00 66 1013.1
20260507124522 46 155 1.0 6.0 0.00 0.02 0.00 66 1013.2
20260507123021 46 130 1.0 8.0 0.00 0.02 0.00 72 1013.2
20260507121518 45 78 1.0 3.0 0.00 0.03 0.00 85 1013.1
20260507120016 42 53 0.0 2.0 0.00 0.04 0.00 91 1013.4
20260507114527 41 53 0.0 2.0 0.00 0.04 0.00 91 1013.4
20260507113024 41 53 0.0 0.0 0.00 0.05 0.00 91 1013.4
20260507111526 41 53 0.0 0.0 0.00 0.06 0.00 91 1013.3
20260507110008 40 53 0.0 0.0 0.00 0.07 0.00 92 1012.9
20260507104511 39 53 0.0 0.0 0.00 0.08 0.00 92 1012.6
20260507103011 39 53 0.0 2.0 0.00 0.09 0.00 92 1012.5
20260507101510 40 32 0.0 0.0 0.00 0.10 0.00 93 1012.4
20260507100010 39 32 0.0 0.0 0.00 0.12 0.00 93 1012.5